Location: Beaver Brook Station
(42.3793°N, 71.2203°W)
Time: 01:56:21
(UTC+00:00)

OAO 2 Rocket - Pass Details

Date: 29 October 2020
Orbit: 676 x 746 km, 35.0° (Epoch: 25 November)

Event Time Altitude Azimuth Distance (km) Brightness Sun altitude
Rises 23:39:17 0° 258° (WSW) 3,058 8.0 -22.3°
Reaches altitude 10° 23:41:52 10° 249° (WSW) 2,130 6.7 -22.8°
Maximum altitude 23:46:20 34° 185° (S) 1,109 4.3 -23.6°
Enters shadow 23:46:58 33° 169° (S) 1,136 4.2 -23.7°
